Theta_e
326 332 339 340 338 336 336 332 333 333 334 335 337 338 338 336 336 334 332 333 335 339 339 338 338 337 338 337 336 335 331 326 324 332 335 338 341 341 337 338 338 342 339
324 330 337 340 340 339 337 335 334 332 332 334 336 337 336 337 336 336 335 335 337 338 337 336 335 335 334 336 333 331 329 328 326 325 334 336 339 341 336 336 338 339 338
323 327 334 337 339 339 339 338 334 331 330 334 335 335 334 335 335 335 335 336 336 336 334 334 333 332 330 331 331 327 326 327 328 327 327 334 335 339 340 335 332 331 331
323 322 328 332 334 337 337 337 336 332 335 335 336 335 334 333 333 333 334 334 334 333 332 330 326 324 326 326 325 325 325 325 325 326 326 327 332 335 337 339 334 330 328
326 323 327 331 334 334 335 336 334 334 336 335 335 334 333 333 332 332 331 332 332 331 327 325 323 322 321 320 319 317 315 314 318 322 324 326 327 331 337 336 336 333 330
327 328 332 332 333 334 335 334 334 335 336 334 333 332 332 331 330 329 328 331 328 326 323 320 316 314 310 306 304 301 300 300 301 306 313 322 325 329 335 334 334 335 333
328 329 331 331 331 332 335 336 334 337 336 333 331 331 330 329 327 324 323 324 322 320 316 313 314 309 303 300 300 300 300 300 300 300 303 314 324 328 329 330 331 333 334
328 329 330 331 330 331 334 335 334 335 335 333 331 329 329 327 323 320 320 319 317 311 308 307 303 300 299 299 299 299 299 299 300 302 303 308 319 323 324 325 327 329 330
328 329 329 329 328 329 333 333 333 333 333 331 330 328 326 322 320 317 316 315 315 314 311 303 300 299 299 299 298 298 298 298 298 299 301 307 314 319 320 321 322 324 325
325 326 326 325 325 327 328 332 332 331 330 330 328 325 322 318 316 314 314 315 315 314 305 300 299 299 299 298 298 298 298 297 297 297 298 301 308 314 316 317 318 319 321
324 324 323 323 324 324 325 327 330 329 329 327 326 322 319 314 313 311 311 313 314 310 303 299 298 299 299 299 298 298 297 297 297 296 296 297 303 312 314 314 315 317 317
322 323 323 322 322 323 324 325 328 327 327 324 321 318 315 310 309 306 310 312 311 306 301 299 299 299 299 298 297 297 296 296 295 295 295 295 298 306 311 313 314 315 316
319 321 321 322 321 322 323 323 325 325 325 321 318 315 312 309 305 304 308 308 306 303 300 298 298 298 298 297 297 296 296 295 294 294 294 295 297 307 310 312 314 315 314
316 318 320 321 321 321 321 321 322 321 322 320 316 313 311 307 301 301 304 304 303 300 298 297 297 297 296 296 295 295 294 294 294 293 294 294 296 305 310 311 312 313 314
314 316 317 319 320 320 320 320 319 319 318 318 316 312 309 304 299 299 301 302 300 297 296 297 296 296 296 295 295 294 294 293 293 293 293 294 297 306 309 310 310 312 313
311 313 315 316 318 319 319 318 318 317 316 315 314 311 308 305 299 298 300 299 296 296 296 296 296 295 294 294 294 294 293 292 292 293 294 295 296 300 307 307 308 309 310
310 310 311 313 315 317 318 318 317 316 315 313 312 310 307 304 300 297 298 297 296 295 295 295 294 294 294 294 294 294 293 293 292 293 294 295 295 301 305 305 306 309 309
308 308 308 308 310 314 316 317 317 316 314 312 311 309 307 304 300 297 297 296 296 295 295 294 294 294 294 294 294 293 293 292 292 292 292 293 294 295 295 297 302 303 303
309 308 308 307 307 309 313 314 314 315 314 312 310 309 307 303 300 297 297 296 295 295 294 294 294 294 293 293 293 292 292 292 292 292 291 292 292 292 292 291 292 294 298
310 309 307 306 305 306 309 310 310 311 312 311 310 308 306 302 299 298 297 296 295 294 294 294 293 293 293 292 292 292 291 291 291 290 291 291 291 291 291 290 290 290 290
308 307 306 305 303 304 306 306 305 306 307 308 309 307 306 302 298 298 297 296 295 295 294 293 292 292 292 291 291 290 290 290 290 290 290 289 288 289 289 289 289 289 290
307 307 305 304 302 302 303 304 303 303 302 304 305 305 304 301 298 298 297 296 295 294 293 292 292 291 291 291 292 291 292 290 290 290 289 288 288 288 288 288 288 288 289
305 306 306 304 302 301 301 301 301 301 300 299 300 301 301 301 298 298 297 296 295 294 293 292 292 292 292 291 292 294 292 296 290 288 288 288 288 287 287 288 288 288 288
302 302 303 302 302 299 299 299 299 299 298 298 298 298 300 299 298 298 297 296 296 294 293 293 292 292 293 292 290 290 291 291 293 291 287 287 287 286 286 287 287 288 288
299 300 300 300 299 298 298 298 298 298 298 298 298 297 297 297 297 297 297 296 295 294 293 293 292 291 292 293 293 289 288 288 288 290 291 288 286 286 286 286 287 287 288
298 297 297 297 297 297 297 297 297 297 297 296 296 296 296 296 295 296 296 296 295 294 293 293 292 291 291 292 293 293 292 289 287 288 289 287 287 285 285 285 286 287 287
Wind_Speed
22 26 24 21 19 18 15 14 13 11 10 8 6 7 8 7 7 6 6 6 7 9 9 8 9 8 11 10 10 9 8 8 11 10 11 12 15 11 11 10 10 10 10
26 28 25 22 20 18 16 15 13 12 9 6 6 4 5 7 6 6 7 7 8 8 7 5 5 4 6 8 4 4 6 8 9 8 9 11 13 12 10 11 11 10 8
29 28 25 24 20 18 16 15 14 12 11 8 7 6 5 7 8 7 6 10 8 5 4 4 3 3 1 2 1 2 4 6 6 5 6 8 8 11 9 8 9 9 9
30 29 27 24 22 20 18 17 14 13 13 12 10 7 7 6 6 7 7 7 6 6 6 5 3 2 1 1 2 3 3 3 2 2 4 5 5 6 7 8 7 8 9
31 29 27 24 21 20 20 18 16 15 16 13 13 12 10 8 8 7 7 8 7 7 6 4 1 1 2 3 3 4 4 3 3 2 1 2 3 6 7 4 4 4 7
30 28 26 24 24 22 19 19 19 18 17 16 14 14 12 10 8 6 6 7 8 8 7 4 3 4 2 1 2 3 2 1 1 1 1 2 3 4 6 5 3 4 4
29 29 26 25 24 23 22 21 21 21 21 19 16 13 14 12 11 10 9 9 8 7 5 5 6 4 3 4 4 5 6 5 4 3 3 4 5 7 8 4 3 4 5
26 28 26 26 25 24 21 21 23 23 21 18 17 15 15 14 13 12 12 11 10 8 7 7 5 4 5 5 5 6 5 4 5 5 5 5 5 7 7 1 1 1 2
23 26 27 27 26 25 22 23 22 23 22 19 17 17 17 15 14 13 13 12 11 12 11 9 7 6 5 4 5 5 5 5 5 5 4 5 5 7 6 5 1 1 2
24 26 27 28 28 29 26 25 25 25 22 23 22 22 21 18 16 15 15 14 13 13 11 10 8 6 5 5 4 4 4 5 5 4 4 4 5 7 6 7 6 2 2
26 28 28 29 30 31 29 27 28 25 26 26 26 25 24 21 19 18 17 15 14 12 11 9 7 5 5 5 4 3 3 3 3 2 3 2 3 6 6 7 7 7 7
31 33 32 31 32 31 30 29 29 28 29 28 28 28 25 23 21 18 19 18 16 14 12 9 7 5 5 5 5 4 3 3 2 2 3 3 3 5 5 6 7 7 7
35 34 36 35 33 33 32 32 31 32 31 31 30 29 26 24 22 23 23 21 19 16 12 9 8 7 6 5 4 3 3 3 3 4 4 3 2 5 6 7 8 8 7
33 36 37 37 37 36 35 35 35 35 35 34 33 30 29 27 26 26 25 23 20 17 14 12 10 9 7 5 4 3 3 3 3 4 3 2 2 5 7 7 8 8 8
38 39 39 40 41 41 39 39 38 39 39 38 35 33 31 30 29 28 27 24 21 19 16 14 12 10 8 6 4 3 2 3 3 3 3 4 6 9 9 8 8 8 9
38 41 41 43 44 45 45 44 43 42 42 40 39 36 34 33 31 30 28 26 24 21 18 15 13 11 9 7 5 3 3 4 4 4 5 7 8 9 10 10 10 9 9
37 37 41 43 45 49 49 49 48 47 45 43 42 39 38 36 34 32 30 28 26 23 21 18 15 12 9 7 5 3 2 2 3 4 6 8 10 13 14 12 12 12 11
33 34 37 40 46 50 52 53 52 51 49 47 46 43 41 38 37 35 33 31 28 25 23 20 18 15 11 8 5 3 2 3 6 7 9 10 11 10 10 10 14 13 11
32 33 35 38 43 49 51 50 51 53 52 51 48 46 44 41 39 38 36 33 30 28 26 23 20 16 13 9 7 5 5 6 8 9 10 11 11 10 10 9 8 9 9
27 30 31 35 39 42 43 42 44 49 50 52 52 50 46 44 42 40 37 34 32 30 27 25 22 19 15 11 9 8 8 8 8 11 11 10 9 7 6 5 5 5 6
21 25 30 33 36 39 41 39 37 46 47 52 52 52 48 46 45 43 40 37 35 34 32 28 25 20 16 14 14 11 11 11 11 12 11 10 8 8 7 5 6 7 8
21 21 26 32 36 42 43 41 28 33 34 44 50 52 49 49 48 46 44 41 39 37 33 32 29 23 13 18 8 6 3 3 6 10 10 9 8 7 6 6 7 10 12
19 24 24 30 35 38 38 35 29 21 23 33 41 48 51 51 49 48 45 44 42 40 39 37 34 28 19 18 14 5 3 3 4 9 11 9 3 4 5 7 10 11 13
24 19 20 25 29 32 36 33 38 32 23 29 34 41 50 51 51 49 48 46 44 42 41 40 36 32 25 19 15 12 6 6 3 3 7 11 6 1 4 8 9 12 14
28 21 14 14 23 26 35 36 33 27 27 23 33 37 44 50 50 50 48 46 46 45 43 40 38 35 29 25 18 14 10 8 7 2 3 5 6 7 4 7 11 11 12
34 26 18 6 11 19 25 28 31 28 25 24 30 34 41 45 48 47 47 46 46 45 46 44 41 38 35 28 27 21 19 9 8 6 2 3 4 5 7 9 11 11 13
Wind_Direction
185 173 175 176 178 180 177 179 178 177 173 171 158 138 124 120 110 113 123 119 109 113 108 98 92 90 90 95 89 72 63 68 71 74 81 82 76 79 66 60 62 60 54
176 176 177 178 180 182 184 181 185 185 183 177 173 163 135 120 122 133 128 128 132 124 127 135 124 132 110 87 86 53 51 71 73 70 80 89 85 73 63 65 64 58 56
177 177 180 184 185 185 191 196 196 194 191 185 189 198 184 168 162 151 154 143 134 139 171 190 147 149 141 105 73 25 48 59 64 69 83 94 98 84 60 56 47 42 37
179 180 183 187 191 191 196 201 203 197 190 187 194 197 197 184 204 177 161 150 175 183 180 138 119 99 100 247 302 343 358 36 61 60 74 85 94 73 55 51 48 42 36
181 182 181 181 185 192 199 205 205 194 192 196 192 201 193 184 176 175 167 166 157 162 150 142 150 200 231 259 277 299 314 313 301 306 42 92 93 64 46 49 53 44 36
183 185 185 185 185 187 194 200 200 194 193 195 202 204 203 197 183 174 171 145 153 145 143 130 124 108 117 27 325 321 330 303 286 316 204 127 85 66 55 53 61 84 35
185 188 192 195 195 193 189 189 193 191 192 196 198 198 199 195 183 177 168 163 168 175 167 134 124 131 98 68 55 52 45 44 59 75 108 125 88 64 59 60 65 73 73
190 192 198 200 201 198 198 199 199 200 200 195 199 193 191 187 180 175 170 169 171 182 175 168 147 108 76 67 54 55 50 52 57 62 83 114 91 58 47 54 74 44 65
196 200 200 203 205 204 202 202 204 209 208 204 198 192 190 185 183 180 178 171 162 154 156 145 136 116 98 73 51 40 36 43 60 72 88 102 105 50 44 36 329 21 6
203 206 207 207 206 207 209 205 206 210 206 199 195 197 197 194 187 184 174 166 162 160 154 152 149 135 117 103 78 62 36 22 32 37 54 79 82 48 42 42 44 41 32
210 212 210 211 209 212 212 208 208 211 206 201 197 198 200 195 192 187 175 169 166 166 159 158 150 136 117 106 95 74 61 46 28 7 8 7 58 52 45 46 46 46 45
216 214 213 213 212 212 212 209 207 204 206 204 203 204 206 199 196 186 178 177 176 173 170 173 165 154 131 108 91 80 68 58 38 21 4 349 11 32 47 51 51 48 53
223 219 216 215 214 214 212 209 208 207 208 208 209 210 208 201 196 187 185 186 185 184 179 179 168 158 146 132 116 93 65 44 23 9 358 341 24 52 58 61 68 63 52
230 230 224 219 216 216 215 212 211 208 209 211 212 212 208 204 199 194 194 193 191 188 186 178 172 166 155 138 119 100 86 58 31 16 7 22 72 74 73 76 71 72 70
237 235 230 224 220 218 215 216 214 213 213 214 214 213 211 208 204 199 198 197 196 194 192 188 181 173 163 151 134 110 74 54 34 44 70 91 100 89 89 89 82 78 76
240 240 235 231 225 221 218 218 216 216 216 215 215 214 213 212 209 204 202 200 200 198 195 192 188 179 171 155 137 105 60 43 48 74 101 115 114 104 95 94 88 88 82
247 245 239 233 229 226 222 221 219 219 218 217 217 216 215 213 211 209 207 204 203 199 196 193 189 181 175 160 150 126 83 52 90 96 113 128 120 107 97 92 91 96 95
259 248 246 237 231 227 226 223 221 221 220 218 217 216 216 215 213 211 210 208 203 200 197 194 191 185 182 171 162 141 101 121 137 124 114 130 130 127 120 120 110 97 85
271 261 248 239 233 228 224 221 221 223 222 221 219 217 216 216 215 213 211 209 205 201 199 197 192 191 186 173 163 129 119 130 149 146 142 133 125 118 113 119 128 126 104
271 261 252 243 234 227 218 214 219 224 223 223 221 219 217 216 214 213 213 210 206 203 200 198 197 194 189 176 149 121 119 131 146 152 147 138 133 128 123 130 134 144 139
265 254 246 235 228 216 207 202 210 216 216 222 223 223 218 216 214 213 212 209 207 207 205 199 196 194 185 173 137 103 111 126 131 141 133 119 98 99 111 112 118 125 117
279 261 246 238 229 216 207 205 206 209 217 220 220 222 219 217 215 214 213 210 209 206 203 201 199 188 186 182 167 139 149 187 181 174 164 143 96 93 61 86 101 112 112
289 279 252 242 234 223 210 198 200 204 215 215 219 221 218 217 216 215 215 213 211 208 205 204 202 200 184 189 192 167 139 203 152 203 207 198 149 83 76 106 114 112 113
328 306 281 256 232 227 216 205 197 198 195 210 210 215 217 216 215 215 215 213 212 211 211 209 206 204 199 184 188 207 181 147 172 173 212 220 222 140 84 123 123 127 135
351 340 317 270 241 228 219 212 208 215 209 213 203 208 213 215 217 215 215 215 213 212 213 213 209 208 207 203 187 174 176 175 176 143 164 170 185 170 117 132 140 141 147
16 12 4 331 254 231 225 222 222 219 220 212 200 201 207 213 215 219 218 216 216 216 215 213 212 212 210 212 208 199 182 172 187 167 171 161 162 171 157 154 155 155 158